Flight Track Log - Related Links

Times and Time Zones

All times are in EDT time to prevent confusion due to time zone crossing. See the N329JB flight status page for this flight to view local times or setup timezone preferences in your user account.

Time Position Orientation Groundspeed Altitude Reporting Facility
EDT Latitude Longitude Course Direction KTS MPH feet Rate Location/Type
Tue 01:56:41 PM 28.4500 -81.3167 139° Southeast 151 174 800  Level Orlando TRACON
Tue 01:57:42 PM 28.4833 -81.2833 41° Northeast 190 219 2,200 2,079 Climbing Orlando TRACON
Tue 01:58:48 PM 28.5000 -81.2167 74° East 240 276 5,200 2,313 Climbing Orlando TRACON
Tue 02:00:00 PM 28.0896 -80.8614 129° Southeast  Level Estimated
Tue 02:00:28 PM 28.4844 -81.0889 98° East 274 315 8,600  Level Miami Center
Tue 02:01:00 PM 28.0044 -80.7499 139° Southeast  Level Estimated
Tue 02:01:28 PM 28.4494 -81.0025 115° Southeast 284 327 10,900  Level Miami Center
Tue 02:02:28 PM 28.3981 -80.9086 122° Southeast 317 365 12,700 2,050 Climbing Miami Center
Tue 02:03:28 PM 28.3231 -80.8281 137° Southeast 352 405 15,000 2,350 Climbing Miami Center
Tue 02:04:28 PM 28.2339 -80.7308 136° Southeast 395 455 17,400 2,050 Climbing Miami Center
Tue 02:05:28 PM 28.1506 -80.6431 137° Southeast 405 466 19,100 1,800 Climbing Miami Center
Tue 02:06:28 PM 28.0694 -80.5533 136° Southeast 405 466 21,000 1,750 Climbing Miami Center
Tue 02:07:28 PM 27.9903 -80.4708 137° Southeast 415 478 22,600 1,000 Climbing Miami Center
Tue 02:08:28 PM 27.9006 -80.3764 137° Southeast 430 495 23,000 350 Climbing Miami Center
Tue 02:09:28 PM 27.8111 -80.2867 138° Southeast 435 501 23,300 1,500 Climbing Miami Center
Tue 02:10:28 PM 27.7233 -80.1928 137° Southeast 435 501 26,000 1,900 Climbing Miami Center
Tue 02:11:28 PM 27.6442 -80.0967 133° Southeast 429 494 27,100 1,050 Climbing Miami Center
Tue 02:12:28 PM 27.5672 -79.9889 129° Southeast 429 494 28,100 1,000 Climbing Miami Center
Tue 02:13:28 PM 27.4903 -79.8744 127° Southeast 445 512 29,100 1,000 Climbing Miami Center
Tue 02:14:28 PM 27.4011 -79.7483 129° Southeast 461 531 30,100 1,000 Climbing Miami Center
Tue 02:15:28 PM 27.3156 -79.6314 129° Southeast 470 541 31,100 1,050 Climbing Miami Center
Tue 02:16:28 PM 27.2322 -79.5128 128° Southeast 482 555 32,200 1,100 Climbing Miami Center
Tue 02:17:28 PM 27.1589 -79.4083 128° Southeast 477 549 33,300 950 Climbing Miami Center
Tue 02:18:28 PM 27.0772 -79.2969 129° Southeast 477 549 34,100 700 Climbing Miami Center
Tue 02:19:28 PM 26.9978 -79.1808 128° Southeast 471 542 34,700 450 Climbing Miami Center
Tue 02:20:28 PM 26.9139 -79.0650 129° Southeast 477 549 35,000 150 Climbing Miami Center
Tue 02:21:28 PM 26.8258 -78.9447 129° Southeast 487 560 35,000  Level Miami Center
Tue 02:22:28 PM 26.7419 -78.8269 129° Southeast 492 566 35,000  Level Miami Center
Tue 02:23:28 PM 26.6536 -78.7047 129° Southeast 492 566 35,000  Level Miami Center
Tue 02:24:28 PM 26.5631 -78.5847 130° Southeast 499 574 35,000  Level Miami Center
Tue 02:25:28 PM 26.4767 -78.4650 129° Southeast 499 574 35,000  Level Miami Center
Tue 02:26:28 PM 26.3881 -78.3478 130° Southeast 499 574 35,000  Level Miami Center
Tue 02:27:28 PM 26.3017 -78.2264 128° Southeast 505 581 35,000  Level Miami Center
Tue 02:28:28 PM 26.2128 -78.1047 129° Southeast 505 581 35,000  Level Miami Center
Tue 02:29:28 PM 26.1261 -77.9836 129° Southeast 505 581 35,000  Level Miami Center
Tue 02:30:28 PM 26.0369 -77.8647 130° Southeast 505 581 35,000  Level Miami Center
Tue 02:31:28 PM 25.9458 -77.7439 130° Southeast 505 581 35,000  Level Miami Center
Tue 02:32:28 PM 25.8589 -77.6231 129° Southeast 505 581 35,000  Level Miami Center
Tue 02:33:28 PM 25.7694 -77.5072 131° Southeast 505 581 35,000  Level Miami Center
Tue 02:34:28 PM 25.6719 -77.3731 129° Southeast 505 581 35,000  Level Miami Center
Tue 02:35:28 PM 25.5803 -77.2528 130° Southeast 505 581 35,000  Level Miami Center
Tue 02:36:28 PM 25.4947 -77.1328 128° Southeast 505 581 35,000  Level Miami Center
Tue 02:37:28 PM 25.4031 -77.0128 130° Southeast 505 581 35,000 200 Level Miami Center
Tue 02:38:28 PM 25.3236 -76.9069 130° Southeast 505 581 35,400 600 Climbing Miami Center
Tue 02:39:28 PM 25.2339 -76.7875 130° Southeast 505 581 36,200 650 Climbing Miami Center
Tue 02:40:28 PM 25.1458 -76.6728 130° Southeast 500 575 36,700 400 Climbing Miami Center
Tue 02:41:28 PM 25.0581 -76.5558 130° Southeast 500 575 37,000 150 Climbing Miami Center
Tue 02:42:28 PM 24.9658 -76.4347 130° Southeast 506 582 37,000  Level Miami Center
Tue 02:43:28 PM 24.8733 -76.3158 131° Southeast 511 588 37,000  Level Miami Center
Tue 02:44:28 PM 24.7831 -76.1972 130° Southeast 511 588 37,000  Level Miami Center
Tue 02:45:28 PM 24.6864 -76.0767 131° Southeast 511 588 37,000  Level Miami Center
Tue 02:46:28 PM 24.5914 -75.9469 129° Southeast 506 582 37,000  Level Miami Center
Tue 02:47:28 PM 24.4967 -75.8267 131° Southeast 512 589 37,000  Level Miami Center
Tue 02:48:28 PM 24.4036 -75.7019 129° Southeast 517 595 37,000  Level Miami Center
Tue 02:49:28 PM 24.3131 -75.5864 131° Southeast 512 589 37,000  Level Miami Center
Tue 02:50:28 PM 24.2178 -75.4644 131° Southeast 512 589 37,000  Level Miami Center
Tue 02:51:28 PM 24.1247 -75.3447 130° Southeast 512 589 37,000  Level Miami Center
Tue 02:52:28 PM 24.0314 -75.2231 130° Southeast 517 595 37,000  Level Miami Center
Tue 02:53:28 PM 23.9361 -75.1014 131° Southeast 522 601 37,000  Level Miami Center
Tue 02:54:28 PM 23.8406 -74.9800 131° Southeast 522 601 37,000  Level Miami Center
Tue 02:55:28 PM 23.7450 -74.8614 131° Southeast 522 601 37,000  Level Miami Center
Tue 02:56:28 PM 23.6533 -74.7403 130° Southeast 522 601 37,000  Level Miami Center
Tue 02:57:28 PM 23.5556 -74.6194 131° Southeast 522 601 37,000  Level Miami Center
Tue 02:58:28 PM 23.4639 -74.5033 131° Southeast 522 601 37,000  Level Miami Center
Tue 02:59:28 PM 23.3658 -74.3831 132° Southeast 522 601 37,000  Level Miami Center
Tue 03:00:28 PM 23.2697 -74.2628 131° Southeast 522 601 37,000  Level Miami Center
Tue 03:01:28 PM 23.1950 -74.1692 131° Southeast 522 601 37,000  Level Miami Center
Tue 03:02:28 PM 23.0925 -74.0406 131° Southeast 517 595 37,000  Level Miami Center
Tue 03:03:28 PM 22.9961 -73.9208 131° Southeast 522 601 37,000  Level Miami Center
Tue 03:04:28 PM 22.9019 -73.8033 131° Southeast 522 601 37,000  Level Miami Center
Tue 03:05:28 PM 22.8053 -73.6842 131° Southeast 522 601 37,000  Level Miami Center
Tue 03:06:28 PM 22.7047 -73.5694 134° Southeast 522 601 37,000  Level Miami Center
Tue 03:07:28 PM 22.6144 -73.4503 129° Southeast 522 601 37,000  Level Miami Center
Tue 03:08:28 PM 22.5178 -73.3358 132° Southeast 522 601 37,000  Level Miami Center
Tue 03:09:28 PM 22.4314 -73.2169 128° Southeast 516 594 37,000  Level Miami Center
Tue 03:10:28 PM 22.3347 -73.1031 133° Southeast 516 594 37,000  Level Miami Center
Tue 03:11:28 PM 22.2400 -72.9847 131° Southeast 516 594 37,000  Level Miami Center
Tue 03:12:28 PM 22.1492 -72.8686 130° Southeast 516 594 37,000  Level Miami Center
Tue 03:13:28 PM 22.0522 -72.7550 133° Southeast 516 594 37,000  Level Miami Center
Tue 03:14:28 PM 21.9594 -72.6414 131° Southeast 516 594 37,000  Level Miami Center
Tue 03:15:28 PM 21.8664 -72.5283 132° Southeast 511 588 37,000  Level Miami Center
Tue 03:16:28 PM 21.7714 -72.4128 132° Southeast 506 582 37,000  Level Miami Center
Tue 03:17:28 PM 21.6761 -72.3000 132° Southeast 506 582 37,000  Level Miami Center
Tue 03:18:28 PM 21.5831 -72.1872 132° Southeast 506 582 37,000  Level Miami Center
Tue 03:19:28 PM 21.4875 -72.0722 132° Southeast 506 582 37,000  Level Miami Center
Tue 03:20:28 PM 21.3944 -71.9597 132° Southeast 506 582 37,000  Level Miami Center
Tue 03:21:28 PM 21.3011 -71.8519 133° Southeast 506 582 37,000  Level Miami Center
Tue 03:22:28 PM 21.2078 -71.7397 132° Southeast 506 582 37,000  Level Miami Center
Tue 03:23:28 PM 21.1142 -71.6253 131° Southeast 506 582 37,000  Level Miami Center
Tue 03:24:28 PM 21.0231 -71.5178 132° Southeast 506 582 37,000  Level Miami Center
Tue 03:25:28 PM 20.9294 -71.4083 132° Southeast 506 582 37,000  Level Miami Center
Tue 03:26:28 PM 20.8381 -71.2989 132° Southeast 506 582 37,000  Level Miami Center
Tue 03:27:28 PM 20.7444 -71.1897 133° Southeast 506 582 37,000  Level Miami Center
Tue 03:28:28 PM 20.6547 -71.0803 131° Southeast 506 582 37,000  Level Miami Center
Tue 03:29:28 PM 20.5611 -70.9692 132° Southeast 506 582 37,000  Level Miami Center
Tue 03:30:28 PM 20.4694 -70.8625 133° Southeast 506 582 37,000 -50 Level Miami Center
Tue 03:31:28 PM 20.3658 -70.7700 140° Southeast 498 573 36,900 -100 Descending Miami Center
Tue 03:33:00 PM 20.1851 -70.7088 164° South  Level FlightAware Approximate
Tue 03:40:00 PM 19.4919 -70.2281 128° Southeast  Level FlightAware Approximate
Tue 03:41:00 PM 19.4134 -70.1266 129° Southeast  Level FlightAware Approximate
Tue 03:42:00 PM 19.3348 -70.0255 129° Southeast  Level FlightAware Approximate
Tue 03:43:00 PM 19.2560 -69.9244 130° Southeast  Level FlightAware Approximate
Tue 03:44:00 PM 19.1406 -69.8822 164° South  Level FlightAware Approximate
Tue 03:45:00 PM 19.0216 -69.8464 164° South  Level FlightAware Approximate
Tue 03:46:00 PM 18.9028 -69.8098 164° South  Level FlightAware Approximate
Tue 03:47:00 PM 18.7843 -69.7725 162° South  Level FlightAware Approximate
Tue 03:48:00 PM 18.6663 -69.7333 180° South  Level FlightAware Approximate
Tue 03:49:00 PM 18.5504 -69.6934 169° South  Level FlightAware Approximate
Tue 03:50:00 PM 18.4323 -69.6562 159° South  Level FlightAware Approximate
Tue 03:51:00 PM 18.4167 -69.6500 159° South  Level FlightAware Approximate
Tue 03:52:00 PM 18.4297 -69.6689 159° South  Level Estimated
Tue 03:53:00 PM 18.4297 -69.6689 159° South  Level Estimated
Tue 03:54:00 PM 18.4297 -69.6689 159° South  Level Estimated
Tue 03:55:00 PM 18.4297 -69.6689 159° South  Level Estimated
Tue 03:56:00 PM 18.4297 -69.6689 159° South  Level Estimated
Tue 03:57:00 PM 18.4297 -69.6689 159° South  Level Estimated
Tue 03:58:00 PM 18.4297 -69.6689 159° South  Level Estimated
Tue 03:59:00 PM 18.4297 -69.6689 159° South  Level Estimated
Tue 04:00:00 PM 18.4297 -69.6689 159° South  Level Estimated

Login

Don't have an account? Register now (free) for customized features, flight alerts, and more!